Piney Island, NC

1:42 AM EST on February 20, 2018 (GMT -0500)
Piney Island

Weather History for KNBT - January, 2013

Change the Weather History Date:

Thursday, January 10, 2013

  Actual Average (KMRH) Record (KMRH)
Temperature  
Mean Temperature 52 °F -  
Max Temperature 55 °F 53 °F 73 °F (1983)
Min Temperature 48 °F 34 °F 9 °F (1970)
Degree Days  
Heating Degree Days 14    
Growing Degree Days 2 (Base 50)    
Moisture  
Dew Point 48 °F    
Average Humidity 85    
Maximum Humidity 100    
Minimum Humidity 55    
Precipitation  
Precipitation 0.00 in - - ()
Sea Level Pressure  
Sea Level Pressure 30.46 in    
Wind  
Wind Speed 6 mph (North)    
Max Wind Speed 15 mph    
Max Gust Speed 24 mph    
Visibility 6 miles    
Events Fog    
Averages and records for this station are not official NWS values.
T = Trace of Precipitation, MM = Missing Value Source: NWS Daily Summary

Daily Weather History Graph

Daily Weather History Graph

Search for Another Location

Airport or City:

Trip Planner

Search our weather history database for the weather conditions in past years. The results will help you decide how hot, cold, wet, or windy it might be!

Date:

Astronomy

Jan. 10, 2013 Rise Set
Actual Time 7:14 AM EST 5:13 PM EST
Civil Twilight 6:46 AM EST 5:40 PM EST
Nautical Twilight 6:15 AM EST 6:12 PM EST
Astronomical Twilight 5:44 AM EST 6:42 PM EST
Moon 5:52 AM EST (1/10) 4:17 PM EST (1/10)
Length of Visible Light 10h 54m
Length of Day
9h 58m
Waning Crescent, 2% of the Moon is Illuminated
Jan 10
Waning Crescent
Jan 11
New
Jan 18
First Quarter
Jan 26
Full
Feb 3
Last Quarter

Hourly Weather History & Observations

Time (EST) Temp. Dew Point Humidity Pressure Visibility Wind Dir Wind Speed Gust Speed Precip Events Conditions
12:56 AM 54.0 °F 51.1 °F 90% 30.42 in 9.0 mi West 4.6 mph - N/A   Clear
1:56 AM 55.0 °F 52.0 °F 89% 30.43 in 9.0 mi West 4.6 mph - N/A   Clear
2:56 AM 55.9 °F 54.0 °F 93% 30.43 in 7.0 mi WSW 6.9 mph - N/A   Clear
3:25 AM 55.4 °F 53.6 °F 94% 30.42 in 1.5 mi West 3.5 mph - N/A   Clear
3:29 AM 53.6 °F 53.6 °F 100% 30.41 in 0.5 mi West 3.5 mph - N/A Fog Fog
3:39 AM 53.6 °F 51.8 °F 94% 30.41 in 0.2 mi Calm Calm - N/A Fog Fog
3:56 AM 54.0 °F 53.1 °F 97% 30.42 in 0.5 mi WNW 4.6 mph - N/A Fog Fog
4:05 AM 53.6 °F 51.8 °F 94% 30.41 in 0.2 mi WNW 5.8 mph - N/A Fog Fog
4:15 AM 53.6 °F 53.6 °F 100% 30.41 in 0.2 mi WNW 6.9 mph - N/A Fog Fog
4:27 AM 51.8 °F 51.8 °F 100% 30.41 in 0.5 mi NW 4.6 mph - N/A Fog Fog
4:35 AM 51.8 °F 51.8 °F 100% 30.41 in 0.2 mi NW 4.6 mph - N/A Fog Fog
4:43 AM 51.8 °F 50.0 °F 94% 30.41 in 0.5 mi NW 3.5 mph - N/A Fog Fog
4:56 AM 52.0 °F 50.0 °F 93% 30.42 in 0.8 mi NW 3.5 mph - N/A   Mist
5:13 AM 51.8 °F 51.8 °F 100% 30.41 in 1.0 mi North 4.6 mph - N/A   Clear
5:21 AM 51.8 °F 51.8 °F 100% 30.41 in 3.0 mi North 4.6 mph - N/A   Clear
5:56 AM 52.0 °F 50.0 °F 93% 30.44 in 5.0 mi Calm Calm - N/A   Clear
6:20 AM 50.0 °F 48.2 °F 94% 30.45 in 1.8 mi West 5.8 mph - N/A   Clear
6:36 AM 51.8 °F 50.0 °F 94% 30.46 in 3.0 mi West 4.6 mph - N/A   Clear
6:47 AM 53.6 °F 51.8 °F 94% 30.46 in 1.8 mi NW 4.6 mph - N/A   Clear
6:56 AM 52.0 °F 51.1 °F 97% 30.48 in 1.5 mi NW 4.6 mph - N/A   Clear
7:20 AM 53.6 °F 51.8 °F 94% 30.47 in 3.0 mi NNW 5.8 mph - N/A   Clear
7:56 AM 53.1 °F 51.1 °F 93% 30.51 in 7.0 mi North 6.9 mph - N/A   Clear
8:56 AM 54.0 °F 48.0 °F 80% 30.53 in 10.0 mi NE 10.4 mph - N/A   Clear
9:56 AM 55.0 °F 45.0 °F 69% 30.53 in 10.0 mi NE 11.5 mph - N/A   Clear
10:56 AM 55.0 °F 43.0 °F 64% 30.53 in 10.0 mi NE 11.5 mph - N/A   Clear
11:56 AM 55.0 °F 43.0 °F 64% 30.50 in 10.0 mi ENE 13.8 mph - N/A   Clear
12:56 PM 54.0 °F 42.1 °F 64% 30.49 in 10.0 mi ENE 15.0 mph - N/A   Clear
1:56 PM 54.0 °F 42.1 °F 64% 30.49 in 10.0 mi ENE 13.8 mph 20.7 mph N/A   Clear
2:56 PM 55.0 °F 39.0 °F 55% 30.48 in 10.0 mi ENE 15.0 mph - N/A   Clear
3:56 PM 53.1 °F 42.1 °F 66% 30.50 in 10.0 mi ENE 11.5 mph 24.2 mph N/A   Clear
4:56 PM 51.1 °F 42.1 °F 71% 30.50 in 10.0 mi NE 10.4 mph - N/A   Clear
5:56 PM 51.1 °F 41.0 °F 68% 30.50 in 10.0 mi NE 10.4 mph - N/A   Clear
6:56 PM 50.0 °F 42.1 °F 74% 30.51 in 10.0 mi NE 8.1 mph - N/A   Clear
7:56 PM 48.9 °F 41.0 °F 74% 30.50 in 10.0 mi NE 10.4 mph - N/A   Clear
8:56 PM 48.9 °F 39.9 °F 71% 30.50 in 10.0 mi NNE 8.1 mph - N/A   Clear
9:56 PM 48.9 °F 41.0 °F 74% 30.48 in 10.0 mi NE 9.2 mph - N/A   Clear
10:56 PM 48.9 °F 42.1 °F 77% 30.48 in 10.0 mi NE 8.1 mph - N/A   Clear
11:56 PM 48.9 °F 43.0 °F 80% 30.47 in 10.0 mi NE 10.4 mph - N/A   Partly Cloudy